• In United Kingdom
  • List of Countries
  • For 7 days
  • Water Temperature
  • Satellite Maps
  • Weather Map
  • Weather Widgets
  • user-avatar
    Login

    Hourly Weather Guadalajara

    Today, 24 November, Friday

    Time Temperature Precipitation Wind Pressure Humidity
    00:00 +13°C° 0 mm 1 mps 632 mmHg 43%
    01:00 +12°C° 0 mm 1 mps 631 mmHg 44%
    02:00 +12°C° 0 mm 1 mps 631 mmHg 46%
    03:00 +11°C° 0 mm 1 mps 631 mmHg 46%
    04:00 +11°C° 0 mm 1 mps 631 mmHg 46%
    05:00 +10°C° 0 mm 1 mps 631 mmHg 46%
    06:00 +12°C° 0 mm 1 mps 632 mmHg 42%
    07:00 +14°C° 0 mm 1 mps 633 mmHg 37%
    08:00 +16°C° 0 mm 1 mps 633 mmHg 32%
    09:00 +20°C° 0 mm 1 mps 634 mmHg 28%
    10:00 +23°C° 0 mm 1 mps 635 mmHg 24%
    11:00 +26°C° 0 mm 1 mps 635 mmHg 19%
    12:00 +27°C° 0 mm 1 mps 635 mmHg 19%
    13:00 +28°C° 0 mm 1 mps 635 mmHg 18%
    14:00 +28°C° 0 mm 1 mps 634 mmHg 17%
    15:00 +26°C° 0 mm 1 mps 633 mmHg 21%
    16:00 +24°C° 0 mm 1 mps 633 mmHg 25%
    17:00 +21°C° 0 mm 1 mps 632 mmHg 29%
    18:00 +20°C° 0 mm 1 mps 632 mmHg 33%
    19:00 +18°C° 0 mm 1 mps 632 mmHg 36%
    20:00 +15°C° 0 mm 0 mps 632 mmHg 40%
    21:00 +14°C° 0 mm 0 mps 632 mmHg 46%
    22:00 +13°C° 0 mm 0 mps 632 mmHg 51%
    23:00 +12°C° 0 mm 0 mps 632 mmHg 57%

    Tomorrow, 25 November, Saturday

    Time Temperature Precipitation Wind Pressure Humidity
    00:00 +12°C° 0 mm 0 mps 632 mmHg 61%
    01:00 +11°C° 0 mm 0 mps 632 mmHg 65%
    02:00 +11°C° 0 mm 0 mps 632 mmHg 69%
    03:00 +10°C° 0 mm 0 mps 631 mmHg 70%
    04:00 +10°C° 0 mm 0 mps 631 mmHg 72%
    05:00 +10°C° 0 mm 0 mps 631 mmHg 74%
    06:00 +12°C° 0 mm 0 mps 633 mmHg 67%
    07:00 +14°C° 0 mm 0 mps 634 mmHg 59%
    08:00 +16°C° 0 mm 0 mps 635 mmHg 52%
    09:00 +20°C° 0 mm 0 mps 636 mmHg 43%
    10:00 +23°C° 0 mm 0 mps 637 mmHg 34%
    11:00 +26°C° 0 mm 0 mps 637 mmHg 25%
    12:00 +27°C° 0 mm 0 mps 637 mmHg 23%
    13:00 +29°C° 0 mm 1 mps 636 mmHg 21%
    14:00 +29°C° 0 mm 1 mps 635 mmHg 19%
    15:00 +27°C° 0 mm 1 mps 635 mmHg 22%
    16:00 +25°C° 0 mm 1 mps 634 mmHg 26%
    17:00 +22°C° 0 mm 1 mps 633 mmHg 29%
    18:00 +21°C° 0 mm 1 mps 633 mmHg 32%
    19:00 +19°C° 0 mm 1 mps 633 mmHg 35%
    20:00 +15°C° 0 mm 0 mps 633 mmHg 38%
    21:00 +15°C° 0 mm 0 mps 633 mmHg 41%
    22:00 +14°C° 0 mm 0 mps 633 mmHg 44%
    23:00 +13°C° 0 mm 0 mps 633 mmHg 48%

    Day after tomorrow, 26 November, Sunday

    Time Temperature Precipitation Wind Pressure Humidity
    00:00 +13°C° 0 mm 0 mps 633 mmHg 49%
    01:00 +12°C° 0 mm 0 mps 633 mmHg 50%
    02:00 +12°C° 0 mm 0 mps 633 mmHg 51%
    03:00 +12°C° 0 mm 1 mps 633 mmHg 50%
    04:00 +12°C° 0 mm 1 mps 632 mmHg 49%
    05:00 +12°C° 0 mm 1 mps 632 mmHg 48%
    06:00 +14°C° 0 mm 1 mps 634 mmHg 42%
    07:00 +16°C° 0 mm 1 mps 635 mmHg 37%
    08:00 +17°C° 0 mm 2 mps 636 mmHg 32%
    09:00 +20°C° 0 mm 2 mps 636 mmHg 26%
    10:00 +24°C° 0 mm 2 mps 637 mmHg 20%
    11:00 +27°C° 0 mm 3 mps 637 mmHg 15%
    12:00 +28°C° 0 mm 3 mps 637 mmHg 14%
    13:00 +28°C° 0 mm 3 mps 636 mmHg 13%
    14:00 +29°C° 0 mm 3 mps 636 mmHg 12%
    15:00 +27°C° 0 mm 2 mps 635 mmHg 15%
    16:00 +25°C° 0 mm 2 mps 634 mmHg 19%
    17:00 +23°C° 0 mm 1 mps 633 mmHg 22%
    18:00 +21°C° 0 mm 1 mps 634 mmHg 24%
    19:00 +20°C° 0 mm 1 mps 634 mmHg 26%
    20:00 +18°C° 0 mm 1 mps 634 mmHg 28%
    21:00 +16°C° 0 mm 1 mps 634 mmHg 31%
    22:00 +15°C° 0 mm 1 mps 634 mmHg 33%
    23:00 +15°C° 0 mm 1 mps 634 mmHg 36%

    27 November, Monday

    Time Temperature Precipitation Wind Pressure Humidity
    00:00 +14°C° 0 mm 1 mps 634 mmHg 39%
    01:00 +13°C° 0 mm 1 mps 633 mmHg 42%
    02:00 +13°C° 0 mm 1 mps 633 mmHg 45%
    03:00 +12°C° 0 mm 1 mps 633 mmHg 48%
    04:00 +12°C° 0 mm 1 mps 632 mmHg 50%
    05:00 +11°C° 0 mm 1 mps 632 mmHg 52%
    06:00 +13°C° 0 mm 1 mps 633 mmHg 47%
    07:00 +15°C° 0 mm 1 mps 634 mmHg 43%
    08:00 +16°C° 0 mm 1 mps 635 mmHg 38%
    09:00 +20°C° 0 mm 1 mps 635 mmHg 32%
    10:00 +23°C° 0 mm 1 mps 636 mmHg 25%
    11:00 +26°C° 0 mm 1 mps 636 mmHg 19%
    12:00 +27°C° 0 mm 1 mps 636 mmHg 18%
    13:00 +29°C° 0 mm 1 mps 635 mmHg 17%
    14:00 +28°C° 0 mm 0 mps 635 mmHg 15%
    15:00 +25°C° 0 mm 0 mps 634 mmHg 19%
    16:00 +23°C° 0 mm 0 mps 633 mmHg 22%
    17:00 +20°C° 0 mm 0 mps 632 mmHg 26%
    18:00 +18°C° 0 mm 0 mps 632 mmHg 28%
    19:00 +17°C° 0 mm 0 mps 632 mmHg 30%
    20:00 +15°C° 0 mm 0 mps 632 mmHg 32%
    21:00 +15°C° 0 mm 0 mps 632 mmHg 36%
    22:00 +14°C° 0 mm 0 mps 632 mmHg 39%
    23:00 +13°C° 0 mm 0 mps 632 mmHg 42%

    28 November, Tuesday

    Time Temperature Precipitation Wind Pressure Humidity
    00:00 +12°C° 0 mm 0 mps 631 mmHg 45%
    01:00 +12°C° 0 mm 0 mps 631 mmHg 47%
    02:00 +11°C° 0 mm 0 mps 630 mmHg 49%
    03:00 +11°C° 0 mm 0 mps 630 mmHg 50%
    04:00 +11°C° 0 mm 0 mps 630 mmHg 51%
    05:00 +10°C° 0 mm 0 mps 630 mmHg 53%
    06:00 +12°C° 0 mm 0 mps 632 mmHg 48%
    07:00 +15°C° 0 mm 1 mps 633 mmHg 42%
    08:00 +19°C° 0 mm 1 mps 634 mmHg 37%
    09:00 +20°C° 0 mm 0 mps 635 mmHg 32%
    10:00 +24°C° 0 mm 0 mps 635 mmHg 27%
    11:00 +27°C° 0 mm 0 mps 636 mmHg 21%
    12:00 +27°C° 0 mm 0 mps 635 mmHg 20%
    13:00 +30°C° 0 mm 1 mps 635 mmHg 19%
    14:00 +30°C° 0 mm 1 mps 634 mmHg 18%
    15:00 +28°C° 0 mm 1 mps 633 mmHg 21%
    16:00 +25°C° 0 mm 1 mps 633 mmHg 25%
    17:00 +23°C° 0 mm 1 mps 632 mmHg 28%
    18:00 +21°C° 0 mm 1 mps 632 mmHg 33%
    19:00 +20°C° 0 mm 1 mps 633 mmHg 38%
    20:00 +18°C° 0 mm 1 mps 633 mmHg 44%
    21:00 +16°C° 0 mm 1 mps 632 mmHg 50%
    22:00 +15°C° 0 mm 1 mps 632 mmHg 56%
    23:00 +14°C° 0 mm 1 mps 632 mmHg 62%

    29 November, Wednesday

    Time Temperature Precipitation Wind Pressure Humidity
    00:00 +13°C° 0 mm 0 mps 632 mmHg 66%
    01:00 +12°C° 0 mm 0 mps 631 mmHg 71%
    02:00 +12°C° 0 mm 0 mps 631 mmHg 75%
    03:00 +11°C° 0 mm 0 mps 631 mmHg 76%
    04:00 +11°C° 0 mm 0 mps 631 mmHg 77%
    05:00 +11°C° 0 mm 0 mps 631 mmHg 78%
    06:00 +14°C° 0 mm 1 mps 632 mmHg 70%
    07:00 +16°C° 0 mm 1 mps 633 mmHg 61%
    08:00 +19°C° 0 mm 1 mps 635 mmHg 53%
    09:00 +22°C° 0 mm 1 mps 635 mmHg 44%
    10:00 +25°C° 0 mm 1 mps 636 mmHg 34%
    11:00 +29°C° 0 mm 1 mps 637 mmHg 25%
    12:00 +29°C° 0 mm 1 mps 636 mmHg 22%
    13:00 +30°C° 0 mm 1 mps 636 mmHg 20%
    14:00 +31°C° 0 mm 1 mps 635 mmHg 18%
    15:00 +28°C° 0 mm 1 mps 635 mmHg 21%
    16:00 +24°C° 0 mm 0 mps 634 mmHg 24%
    17:00 +22°C° 0 mm 0 mps 634 mmHg 27%
    18:00 +22°C° 0 mm 1 mps 634 mmHg 32%
    19:00 +20°C° 0 mm 1 mps 634 mmHg 36%
    20:00 +19°C° 0 mm 1 mps 634 mmHg 40%
    21:00 +18°C° 0 mm 1 mps 634 mmHg 46%
    22:00 +16°C° 0 mm 1 mps 634 mmHg 51%
    23:00 +14°C° 0 mm 0 mps 633 mmHg 56%
    Show more